PEGASUS DEB

Satellite information

Favourite Embed

Satellite Type and Status

DEBRISIN ORBIT

Key statistics

Satellite PEGASUS DEB at a glance.

Uptime

11313

Days in orbit

Revolutions

≈ 14.9

Per day

Orbit

LEO

Low Earth Orbit

Inclination

81.6

Latest

Satellite identification and parameters

Extended collection of information and parameters for PEGASUS DEB.

Object identification

Identified? True

Debris? True

Object name: PEGASUS DEB

International designator: 1994-029AFV

Object number (NORAD): 39922

Object ID (CCSDS): 39922

Country: UNITED STATES OF AMERICA (US)

Current information (Y/N): Y

RCS size: SMALL

Orbital parameters

Period: 96.898 minutes

Inclination: 81.5901 deg

SMA: 6988.264 km

Apoapsis: 694.904 km

Periapsis: 525.353 km

RAAN: 50.6534 deg

Eccentricy: 0.0121311

Argument of periapsis: 225.5236 deg

Mean anomaly: 133.6012 deg

Mean motion: 14.86102705 rev/day

Mean motion (dot): 0.00011119 rev/day2

B* drag term: 0.0011073 1/REarth

Two-line elements (TLE)

Creation date: May 7, 2025, 6:46 a.m.

Reference frame: TEME

Reference center: EARTH

Epoch: May 3, 2025, 1:28 a.m. UTC

TLE line 0: 0 PEGASUS DEB

TLE line 1: 1 39922U 94029AFV 25123.06163880 .00011119 00000-0 11073-2 0 9991

TLE line 2: 2 39922 81.5901 50.6534 0121311 225.5236 133.6012 14.86102705176822

Live tracking on map

Real-time ground track for satellite PEGASUS DEB.

In-orbit conjunctions

A list of the most updated potential collisions computed for object PEGASUS DEB.

Target Orbit TCA Probability of collision Miss distance Type
CZ-6 R/B LEO 2025-02-07 21:31:25 0.0001495763 238.0 (m) ROCKET BODY
DELTA 4 DEB SSO 2024-08-04 03:04:10 0.0001308714 366.0 (m) DEBRIS

Associated space launch

PEGASUS DEB was lifted into orbit during the mission ‘Pegasus HAPS | Space Test Experiments Platform 2 (STEP-2)’, on board a Pegasus HAPS space rocket.

The launch took place on May 19, 1994, 5:03 p.m. from Edwards Air Force Base.

For more information about the launch, click the button.

Launch to space Pegasus HAPS | Space Test Experiments Platform 2 (STEP-2)
Pegasus HAPS | Space Test Experiments Platform 2 (STEP-2)

Agency: N/A

Status: Launch Successful

Launch date: May 19, 1994, 5:03 p.m. UTC

Rocket: Pegasus HAPS

Launch pad: Edwards Air Force Base

Location: Air launch to orbit

...

Latest news about this satellite

There are no fresh news available about this satellite. Check back as we update our databases every day.


Newsletter sign-up

Weekly statistics, charts and insights to help you stay on top of the space industry.